User: anonymous   Login
Location: Chuathbaluk
(61.5726°N, 159.2454°W)
Time: 00:44:53
(UTC+00:00)
Language:

MOZHAYETS 4 - Orbit

View from above orbital plane
View from above orbital plane
View from above satellite
View from above satellite

Ground track
Ground track

The orbit data is extracted from the following two-line orbital elements,

1 27939U 03042A   21023.84750590  .00000194  00000-0  43289-4 0  9999
2 27939  98.1171 162.1604 0013265  23.0245 337.1552 14.66936182926326
Epoch (UTC): 23 January 2021 20:20:24
Eccentricity: 0.0013265
inclination: 98.1171°
perigee height: 661 km
apogee height: 680 km
right ascension of ascending node: 162.1604°
argument of perigee: 23.0245°
revolutions per day: 14.66936182
mean anomaly at epoch: 337.1552°
orbit number at epoch: 92632

The dashed part of the orbit path shows where the satellite is in the earth's shadow,  

DLR